Track STARLINK-1291 now! 10-day predictions STARLINK-1291 is classified as:
1 45393U 20019AK 21024.94221910 .00000318 00000-0 40244-4 0 9993 2 45393 53.0545 260.2231 0002355 79.6333 280.4921 15.06401923 47952